{"data":{"norad_id":52145,"epoch":"2026-05-24T01:03:38.854080Z","epoch_age_seconds":160645,"freshness":"FRESH","line1":"1 52145U 22030A   26144.04419970  .00000213  00000+0  00000+0 0  9999","line2":"2 52145  62.6766 143.3860 6777536 272.8746  17.6848  2.00615865 30543","mean_motion":2.00615865,"eccentricity":0.6777536,"inclination_deg":62.6766,"raan_deg":143.386,"arg_perigee_deg":272.8746,"mean_anomaly_deg":17.6848,"bstar":0,"rev_number":3054,"period_min":717.78969225589,"perigee_km":2179.3529773639,"apogee_km":38175.842862882,"semimajor_km":26555.734920123,"source":"CELESTRAK","updated_at":"2026-05-25T13:37:57.646718Z"}}